Wheeler AAF, HI

1:35 AM HST on March 28, 2017 (GMT -1000)
Wheeler Army Air Field

Weather History for PHHI - June, 2013

Change the Weather History Date:

Friday, June 21, 2013

  Actual Average Record
Temperature  
Mean Temperature 73 °F -  
Max Temperature 78 °F 79 °F 84 °F (2004)
Min Temperature 68 °F 66 °F 64 °F (2000)
Cooling Degree Days 8    
Growing Degree Days 23 (Base 50)    
Moisture  
Dew Point 66 °F    
Average Humidity 83    
Maximum Humidity 94    
Minimum Humidity 66    
Precipitation  
Precipitation 0.03 in - - ()
Sea Level Pressure  
Sea Level Pressure 30.03 in    
Wind  
Wind Speed 3 mph (ENE)    
Max Wind Speed 14 mph    
Max Gust Speed 20 mph    
Visibility 10 miles    
Events Rain    
Averages and records for this station are not official NWS values.
T = Trace of Precipitation, MM = Missing Value Source: NWS Daily Summary

Daily Weather History Graph

Daily Weather History Graph

Search for Another Location

Airport or City:

Trip Planner

Search our weather history database for the weather conditions in past years. The results will help you decide how hot, cold, wet, or windy it might be!

Date:

Astronomy

Jun. 21, 2013 Rise Set
Actual Time 5:50 AM HST 7:17 PM HST
Civil Twilight 5:25 AM HST 7:42 PM HST
Nautical Twilight 4:56 AM HST 8:11 PM HST
Astronomical Twilight 4:25 AM HST 8:42 PM HST
Moon 5:47 PM HST (6/21) 4:07 AM HST (6/21)
Length of Visible Light 14h 16m
Length of Day
13h 26m
Waxing Gibbous, 96% of the Moon is Illuminated
Jun 21
Waxing Gibbous
Jun 23
Full
Jun 29
Last Quarter
Jul 7
New
Jul 15
First Quarter

Hourly Weather History & Observations

Time (HST) Temp. Dew Point Humidity Pressure Visibility Wind Dir Wind Speed Gust Speed Precip Events Conditions
12:24 AM 69.8 °F 66.2 °F 88% 30.04 in 10.0 mi Calm Calm - N/A   Light Drizzle
12:33 AM 69.8 °F 66.2 °F 88% 30.04 in 10.0 mi Calm Calm - N/A   Mostly Cloudy
12:55 AM 68.4 °F 65.7 °F 91% 30.04 in 10.0 mi NW 4.6 mph - 0.00 in   Mostly Cloudy
1:16 AM 68.0 °F 66.2 °F 94% 30.04 in 10.0 mi Calm Calm - N/A   Light Drizzle
1:25 AM 69.8 °F 66.2 °F 88% 30.03 in 10.0 mi North 3.5 mph - N/A   Mostly Cloudy
1:44 AM 69.8 °F 66.2 °F 88% 30.03 in 10.0 mi NNE 4.6 mph - N/A Rain Rain
1:55 AM 69.4 °F 66.4 °F 90% 30.02 in 9.0 mi Calm Calm - 0.01 in Rain Light Rain
2:03 AM 69.8 °F 66.2 °F 88% 30.02 in 10.0 mi Calm Calm - N/A   Mostly Cloudy
2:11 AM 69.8 °F 66.2 °F 88% 30.02 in 10.0 mi NE 3.5 mph - N/A   Light Drizzle
2:23 AM 69.8 °F 66.2 °F 88% 30.02 in 10.0 mi Calm Calm - N/A   Scattered Clouds
2:55 AM 68.7 °F 65.5 °F 89% 30.02 in 10.0 mi Calm Calm - 0.00 in   Mostly Cloudy
3:36 AM 68.0 °F 66.2 °F 94% 30.02 in 10.0 mi Calm Calm - N/A   Light Drizzle
3:49 AM 68.0 °F 66.2 °F 94% 30.02 in 10.0 mi Calm Calm - N/A   Mostly Cloudy
3:55 AM 68.4 °F 65.7 °F 91% 30.02 in 10.0 mi Calm Calm - 0.00 in   Mostly Cloudy
4:17 AM 68.0 °F 66.2 °F 94% 30.02 in 10.0 mi Calm Calm - N/A   Scattered Clouds
4:36 AM 68.0 °F 66.2 °F 94% 30.02 in 10.0 mi ENE 4.6 mph - N/A   Mostly Cloudy
4:55 AM 68.5 °F 64.9 °F 88% 30.01 in 10.0 mi East 3.5 mph - N/A   Overcast
4:56 AM 68.0 °F 64.4 °F 88% 30.01 in 10.0 mi East 3.5 mph - N/A   Overcast
5:55 AM 68.5 °F 64.2 °F 86% 30.02 in 10.0 mi Calm Calm - N/A   Mostly Cloudy
6:50 AM 69.8 °F 66.2 °F 88% 30.03 in 10.0 mi Calm Calm - N/A   Mostly Cloudy
6:55 AM 69.4 °F 65.7 °F 88% 30.03 in 10.0 mi Calm Calm - N/A   Overcast
7:12 AM 69.8 °F 66.2 °F 88% 30.04 in 10.0 mi Calm Calm - N/A   Light Drizzle
7:34 AM 69.8 °F 66.2 °F 88% 30.04 in 10.0 mi South 3.5 mph - N/A   Scattered Clouds
7:55 AM 72.1 °F 67.1 °F 84% 30.04 in 10.0 mi Calm Calm - 0.00 in   Mostly Cloudy
8:55 AM 75.9 °F 65.7 °F 70% 30.05 in 10.0 mi ENE 9.2 mph - N/A   Partly Cloudy
9:55 AM 77.0 °F 65.5 °F 67% 30.05 in 10.0 mi East 10.4 mph - N/A   Partly Cloudy
10:55 AM 76.8 °F 65.8 °F 69% 30.04 in 10.0 mi ENE 11.5 mph - N/A   Mostly Cloudy
11:28 AM 77.0 °F 66.2 °F 69% 30.04 in 8.0 mi ENE 13.8 mph - N/A   Light Drizzle
11:39 AM 75.2 °F 66.2 °F 73% 30.04 in 8.0 mi ENE 11.5 mph - N/A   Light Drizzle
11:45 AM 75.2 °F 66.2 °F 73% 30.04 in 10.0 mi East 10.4 mph - N/A   Mostly Cloudy
11:55 AM 77.4 °F 67.1 °F 71% 30.04 in 10.0 mi East 10.4 mph - 0.00 in   Mostly Cloudy
12:55 PM 77.9 °F 65.7 °F 66% 30.02 in 10.0 mi ENE 10.4 mph - N/A   Overcast
1:15 PM 77.0 °F 66.2 °F 69% 30.02 in 10.0 mi ENE 11.5 mph 19.6 mph N/A   Light Drizzle
1:27 PM 77.0 °F 66.2 °F 69% 30.01 in 10.0 mi Variable 6.9 mph - N/A   Mostly Cloudy
1:55 PM 76.3 °F 65.5 °F 69% 30.01 in 10.0 mi East 12.7 mph - 0.00 in   Mostly Cloudy
2:55 PM 77.2 °F 65.5 °F 67% 30.00 in 10.0 mi ENE 10.4 mph - N/A   Mostly Cloudy
3:55 PM 78.4 °F 66.0 °F 66% 29.99 in 10.0 mi NNE 8.1 mph - N/A   Overcast
4:55 PM 77.0 °F 65.3 °F 67% 29.98 in 10.0 mi ENE 11.5 mph - N/A   Overcast
5:55 PM 74.3 °F 65.7 °F 74% 29.99 in 10.0 mi ENE 6.9 mph - N/A   Mostly Cloudy
6:09 PM 73.4 °F 66.2 °F 78% 29.99 in 10.0 mi ENE 6.9 mph - N/A   Mostly Cloudy
6:14 PM 73.4 °F 66.2 °F 78% 29.99 in 10.0 mi ENE 4.6 mph - N/A   Mostly Cloudy
6:19 PM 73.4 °F 66.2 °F 78% 29.99 in 10.0 mi NE 6.9 mph - N/A   Mostly Cloudy
6:32 PM 73.4 °F 66.2 °F 78% 30.00 in 10.0 mi Variable 4.6 mph - N/A   Overcast
6:46 PM 73.4 °F 66.2 °F 78% 30.00 in 10.0 mi East 3.5 mph - N/A   Overcast
6:55 PM 72.5 °F 66.4 °F 81% 30.01 in 10.0 mi Calm Calm - N/A   Overcast
7:09 PM 71.6 °F 66.2 °F 83% 30.01 in 10.0 mi Variable 5.8 mph - N/A   Scattered Clouds
7:19 PM 71.6 °F 66.2 °F 83% 30.01 in 10.0 mi ENE 6.9 mph - N/A   Scattered Clouds
7:42 PM 71.6 °F 66.2 °F 83% 30.02 in 10.0 mi ENE 8.1 mph - N/A   Scattered Clouds
7:55 PM 71.2 °F 66.2 °F 84% 30.02 in 10.0 mi ENE 4.6 mph - N/A   Scattered Clouds
8:02 PM 71.6 °F 66.2 °F 83% 30.02 in 10.0 mi NE 5.8 mph - N/A   Scattered Clouds
8:05 PM 71.6 °F 66.2 °F 83% 30.02 in 9.0 mi ENE 4.6 mph - N/A Rain Light Rain
8:55 PM 70.3 °F 67.3 °F 90% 30.05 in 6.0 mi East 6.9 mph - 0.01 in   Light Drizzle
9:03 PM 69.8 °F 68.0 °F 94% 30.04 in 10.0 mi NE 4.6 mph - N/A   Mostly Cloudy
9:16 PM 69.8 °F 68.0 °F 94% 30.05 in 10.0 mi NE 3.5 mph - N/A   Light Drizzle
9:34 PM 69.8 °F 66.2 °F 88% 30.05 in 10.0 mi ENE 5.8 mph - N/A   Mostly Cloudy
9:41 PM 69.8 °F 68.0 °F 94% 30.05 in 10.0 mi East 6.9 mph - N/A   Light Drizzle
9:55 PM 70.0 °F 66.9 °F 90% 30.06 in 10.0 mi Calm Calm - 0.00 in   Mostly Cloudy
9:57 PM 69.8 °F 66.2 °F 88% 30.06 in 10.0 mi Calm Calm - N/A   Light Drizzle
10:18 PM 69.8 °F 66.2 °F 88% 30.06 in 9.0 mi Calm Calm - N/A   Light Drizzle
10:24 PM 69.8 °F 66.2 °F 88% 30.06 in 10.0 mi Calm Calm - N/A   Light Drizzle
10:33 PM 69.8 °F 66.2 °F 88% 30.06 in 10.0 mi Calm Calm - N/A   Light Drizzle
10:39 PM 69.8 °F 66.2 °F 88% 30.06 in 10.0 mi Calm Calm - N/A   Scattered Clouds
10:40 PM 69.8 °F 66.2 °F 88% 30.06 in 10.0 mi SE 3.5 mph - N/A   Partly Cloudy
10:42 PM 69.8 °F 66.2 °F 88% 30.06 in 10.0 mi Variable 4.6 mph - N/A   Light Drizzle
10:50 PM 69.8 °F 66.2 °F 88% 30.06 in 9.0 mi East 4.6 mph - N/A   Light Drizzle
10:55 PM 69.8 °F 66.7 °F 90% 30.06 in 10.0 mi Calm Calm - 0.01 in   Light Drizzle
10:59 PM 69.8 °F 66.2 °F 88% 30.06 in 10.0 mi ENE 3.5 mph - N/A   Scattered Clouds
11:55 PM 71.1 °F 65.5 °F 82% 30.05 in 10.0 mi ENE 5.8 mph - 0.00 in   Overcast